FW8104 Weather Reports


time (UTC)temp
C
wind
direction
speed
KPH
gust
KPH
rain 1hr
cm
rain 24hr
cm
rain mn
cm
humidity
%
barometer
mb
20260506023211 8 34 17.7 22.5 0.00 1.57 1.57 88 1011.9
20260506022708 8 12 12.9 14.5 0.00 1.57 1.57 89 1012.1
20260506022206 8 41 17.7 20.9 0.00 1.57 1.57 88 1012.0
20260506021704 8 24 17.7 22.5 0.00 1.57 1.57 89 1011.8
20260506021200 8 49 11.3 14.5 0.00 1.57 1.57 89 1011.5
20260506020657 8 38 14.5 17.7 0.00 1.57 1.57 89 1011.5
20260506020155 8 31 16.1 17.7 0.00 1.57 1.57 90 1011.5
20260506015652 8 357 17.7 22.5 0.00 1.57 1.57 90 1011.3
20260506015149 8 56 14.5 16.1 0.00 1.57 1.57 90 1011.2
20260506014641 8 43 20.9 24.1 0.00 1.57 1.57 90 1011.0
20260506014136 8 33 14.5 16.1 0.00 1.57 1.57 91 1011.2
20260506013635 8 30 9.7 12.9 0.00 1.57 1.57 91 1011.4
20260506013132 8 2 6.4 6.4 0.00 1.57 1.57 91 1011.2
20260506012628 8 347 12.9 14.5 0.00 1.57 1.57 91 1011.2
20260506012124 8 13 12.9 14.5 0.00 1.57 1.57 91 1011.1
20260506011622 8 24 14.5 16.1 0.00 1.57 1.57 91 1011.0
20260506011118 8 13 14.5 14.5 0.00 1.57 1.57 91 1010.7
20260506010617 8 41 17.7 22.5 0.00 1.57 1.57 90 1010.9
20260506010113 8 61 11.3 12.9 0.00 1.57 1.57 90 1010.9
20260506005610 8 31 9.7 12.9 0.00 1.57 1.57 89 1010.8
20260506005107 8 19 14.5 17.7 0.00 1.57 1.57 89 1010.7
20260506004604 8 49 17.7 22.5 0.00 1.57 1.57 88 1010.6
20260506004100 8 15 20.9 24.1 0.00 1.57 1.57 87 1010.9
20260506003557 8 52 9.7 12.9 0.00 1.57 1.57 87 1010.8
20260506003053 8 11 9.7 11.3 0.00 1.57 1.57 85 1011.0
20260506002549 8 27 11.3 16.1 0.00 1.57 1.57 86 1010.5
20260506002045 8 43 14.5 20.9 0.00 1.57 1.57 86 1010.5
20260506001541 8 16 9.7 14.5 0.00 1.57 1.57 86 1010.7
20260506001039 8 26 8.0 9.7 0.00 1.57 1.57 86 1010.5
20260506000536 8 40 12.9 14.5 0.00 1.57 1.57 85 1010.6
20260506000033 8 42 11.3 14.5 0.00 1.57 1.57 86 1010.4
20260505235531 8 25 17.7 22.5 0.00 1.57 1.57 86 1010.2
20260505235028 8 8 6.4 6.4 0.00 1.57 1.57 87 1010.5
20260505234525 8 46 8.0 9.7 0.00 1.57 1.57 87 1010.5
20260505234022 8 11 12.9 20.9 0.00 1.57 1.57 87 1010.7
20260505233519 8 357 11.3 12.9 0.00 1.57 1.57 88 1010.4
20260505233017 8 14 19.3 27.4 0.00 1.57 1.57 87 1010.2
20260505232514 9 32 14.5 17.7 0.13 1.57 1.57 86 1010.1
20260505232012 9 29 14.5 20.9 0.13 1.57 1.57 85 1010.0
20260505231508 9 30 8.0 12.9 0.13 1.57 1.57 84 1010.0
20260505231007 10 53 9.7 12.9 0.00 1.55 1.55 83 1009.8
20260505230504 10 17 8.0 9.7 0.00 1.55 1.55 81 1009.8
20260505230000 10 14 19.3 24.1 0.00 1.55 1.55 80 1010.0
20260505225457 10 35 9.7 12.9 0.00 1.55 1.55 80 1009.6
20260505224953 10 27 17.7 20.9 0.00 1.55 1.55 79 1009.6
20260505224450 10 17 16.1 17.7 0.00 1.55 1.55 78 1009.8
20260505223948 10 31 22.5 27.4 0.00 1.55 1.55 78 1009.6
20260505223444 10 98 16.1 24.1 0.00 1.55 1.55 77 1009.4
20260505222941 10 47 27.4 33.8 0.00 1.55 1.55 77 1009.4
20260505222437 10 11 24.1 29.0 0.00 1.55 1.55 76 1009.5
20260505221933 10 30 38.6 48.3 0.00 1.55 1.55 76 1009.3
20260505221431 10 344 24.1 27.4 0.00 1.55 1.55 77 1009.3
20260505220928 10 14 14.5 17.7 0.00 1.55 1.55 76 1009.4
20260505220425 10 44 25.7 30.6 0.00 1.55 1.55 76 1009.0
20260505215922 10 50 12.9 14.5 0.00 1.55 1.55 76 1009.3
20260505215420 10 25 24.1 33.8 0.00 1.55 1.55 76 1009.4
20260505214918 10 47 16.1 22.5 0.00 1.55 1.55 77 1009.3
20260505214415 10 12 17.7 20.9 0.00 1.55 1.55 77 1009.4
20260505213912 10 3 14.5 16.1 0.00 1.55 1.55 76 1009.2
20260505213410 10 62 14.5 17.7 0.00 1.55 1.55 76 1008.8
20260505212906 10 33 27.4 46.7 0.00 1.55 1.55 75 1009.2
20260505212403 10 9 16.1 22.5 0.00 1.55 1.55 77 1009.1
20260505211859 10 11 14.5 16.1 0.00 1.55 1.55 77 1009.2
20260505211357 10 356 11.3 14.5 0.00 1.55 1.55 77 1009.3
20260505210853 10 22 19.3 27.4 0.00 1.55 1.55 77 1009.3
20260505210350 10 28 24.1 30.6 0.00 1.55 1.55 77 1009.3
20260505205847 10 43 24.1 27.4 0.00 1.55 1.55 77 1009.0
20260505205345 10 17 24.1 30.6 0.00 1.55 1.55 76 1009.3
20260505204842 10 24 17.7 17.7 0.00 1.55 1.55 78 1009.5
20260505204340 10 9 20.9 25.7 0.00 1.55 1.55 78 1009.3
20260505203837 10 22 20.9 24.1 0.00 1.55 1.55 76 1009.2
20260505203333 10 43 20.9 29.0 0.00 1.55 1.55 77 1009.2
20260505202830 11 15 16.1 17.7 0.00 1.55 1.55 77 1009.0
20260505202326 11 18 17.7 27.4 0.00 1.55 1.55 73 1009.2
20260505201823 11 47 17.7 22.5 0.00 1.55 1.55 72 1009.2
20260505201320 11 1 14.5 17.7 0.00 1.55 1.55 72 1009.2
20260505200818 11 47 6.4 6.4 0.00 1.55 1.55 74 1008.9
20260505200315 11 32 25.7 30.6 0.00 1.55 1.55 73 1009.1
20260505195810 11 34 16.1 24.1 0.00 1.55 1.55 74 1009.2
20260505195308 11 33 19.3 22.5 0.00 1.55 1.55 73 1009.0
20260505194805 11 12 25.7 30.6 0.00 1.55 1.55 73 1008.9
20260505194302 11 69 17.7 20.9 0.00 1.55 1.55 74 1009.1
20260505193757 11 26 14.5 17.7 0.00 1.55 1.55 74 1009.0
20260505193255 11 31 24.1 25.7 0.00 1.55 1.55 73 1009.0
20260505192753 11 24 17.7 22.5 0.00 1.55 1.55 74 1008.9
20260505192250 11 308 16.1 27.4 0.00 1.55 1.55 74 1009.2
20260505191748 11 50 22.5 27.4 0.00 1.55 1.55 75 1008.9
20260505191247 11 33 11.3 17.7 0.00 1.55 1.55 75 1008.5
20260505190742 11 33 14.5 16.1 0.00 1.55 1.55 75 1008.9
20260505190237 11 13 22.5 27.4 0.00 1.55 1.55 75 1009.0
20260505185734 11 20 8.0 9.7 0.00 1.55 1.55 78 1008.7
20260505185231 11 67 14.5 17.7 0.00 1.55 1.55 77 1008.4
20260505184727 11 57 9.7 11.3 0.00 1.55 1.55 78 1008.6
20260505184225 11 38 19.3 27.4 0.00 1.55 1.55 78 1008.4
20260505183721 11 36 25.7 37.0 0.00 1.55 1.55 79 1008.6
20260505183219 11 11 25.7 33.8 0.00 1.55 1.55 80 1008.6
20260505182714 11 64 27.4 38.6 0.00 1.55 1.55 81 1008.7
20260505182212 11 40 14.5 22.5 0.00 1.55 1.55 81 1008.7
20260505181708 11 38 29.0 38.6 0.00 1.55 1.55 82 1008.6
20260505181206 11 3 14.5 24.1 0.00 1.55 1.55 83 1008.5
20260505180702 11 355 19.3 22.5 0.00 1.55 1.55 84 1008.7
20260505180159 11 53 24.1 27.4 0.00 1.55 1.55 83 1008.6
20260505175654 11 30 22.5 30.6 0.00 1.55 1.55 82 1008.6
20260505175151 11 27 16.1 17.7 0.00 1.55 1.55 83 1008.5
20260505174648 11 26 11.3 14.5 0.00 1.55 1.55 83 1008.6
20260505174144 11 21 14.5 17.7 0.00 1.55 1.55 83 1008.5
20260505173641 11 47 9.7 16.1 0.00 1.55 1.55 82 1008.4
20260505173138 11 41 16.1 20.9 0.00 1.55 1.55 82 1008.2
20260505172635 11 55 19.3 25.7 0.00 1.55 1.55 83 1008.1
20260505172132 11 35 30.6 37.0 0.00 1.55 1.55 83 1008.0
20260505171631 11 24 17.7 24.1 0.00 1.55 1.55 83 1007.8
20260505171129 11 33 16.1 17.7 0.00 1.55 1.55 84 1007.7
20260505170626 11 63 16.1 17.7 0.00 1.55 1.55 83 1007.9
20260505170122 11 33 14.5 20.9 0.00 1.55 1.55 83 1007.8
20260505165617 11 45 30.6 40.2 0.00 1.55 1.55 82 1007.9
20260505165114 11 88 24.1 30.6 0.00 1.55 1.55 82 1008.0
20260505164609 12 332 22.5 30.6 0.00 1.55 1.55 83 1007.7
20260505164108 12 65 17.7 24.1 0.00 1.55 1.55 84 1007.8
20260505163606 12 31 16.1 20.9 0.00 1.55 1.55 84 1007.8
20260505163102 12 24 27.4 30.6 0.00 1.55 1.55 83 1007.9
20260505162600 12 24 12.9 14.5 0.00 1.55 1.55 84 1008.1
20260505162058 12 28 22.5 33.8 0.00 1.55 1.55 84 1007.9
20260505161554 12 66 22.5 33.8 0.00 1.55 1.55 84 1008.0
20260505161052 12 3 27.4 29.0 0.00 1.55 1.55 85 1007.7
20260505160550 12 49 8.0 11.3 0.00 1.55 1.55 86 1007.7
20260505153026 11 1 12.9 14.5 0.00 1.55 1.55 89 1007.5
20260505152523 11 52 24.1 27.4 0.00 1.55 1.55 89 1007.7
20260505152019 11 66 20.9 29.0 0.00 1.55 1.55 89 1007.5
20260505151514 11 36 24.1 33.8 0.00 1.55 1.55 90 1007.6
20260505151012 11 60 19.3 24.1 0.00 1.55 1.55 90 1007.6
20260505150508 11 27 17.7 20.9 0.00 1.55 1.55 91 1008.1
20260505140433 12 27 14.5 17.7 0.00 1.55 1.55 93 1006.2
20260505124846 13 7 12.9 20.9 0.00 1.55 1.55 94 1006.4
20260505124343 13 35 17.7 22.5 0.00 1.55 1.55 94 1006.1
20260505123839 13 36 16.1 17.7 0.00 1.55 1.55 94 1006.1
20260505123335 13 16 11.3 12.9 0.00 1.55 1.55 94 1005.9
20260505122832 13 64 12.9 12.9 0.00 1.55 1.55 94 1005.7
20260505122329 13 50 6.4 9.7 0.00 1.55 1.55 94 1005.8
20260505121826 13 28 14.5 16.1 0.00 1.55 1.55 94 1005.9
20260505121323 13 6 12.9 14.5 0.00 1.55 1.55 94 1005.7
20260505120819 14 16 11.3 16.1 0.00 1.55 1.55 93 1005.5
20260505120315 14 17 16.1 20.9 0.00 1.55 1.55 93 1005.5
20260505115813 14 49 11.3 12.9 0.00 1.55 1.55 93 1005.0
20260505115311 15 24 6.4 11.3 0.00 1.55 1.55 93 1005.1
20260505114809 15 359 8.0 11.3 0.00 1.55 1.55 94 1005.1
20260505114305 15 28 6.4 6.4 0.00 1.55 1.55 94 1004.8
20260505113756 15 27 6.4 9.7 0.00 1.55 1.55 94 1004.8
20260505113253 15 91 8.0 12.9 0.00 1.55 1.55 97 1004.7
20260505112748 15 39 11.3 14.5 0.00 1.55 1.55 98 1005.0
20260505112247 15 36 11.3 14.5 0.00 1.55 1.55 99 1004.7
20260505111746 15 20 12.9 16.1 0.00 1.55 1.55 99 1004.7
20260505111242 15 359 4.8 6.4 0.00 1.55 1.55 99 1004.4
20260505110738 15 53 8.0 9.7 0.00 1.55 1.55 99 1004.4
20260505110236 15 330 9.7 11.3 0.00 1.55 1.55 99 1004.4
20260505102212 16 24 6.4 6.4 0.00 1.55 1.55 99 1004.7
20260505101711 16 134 1.6 3.2 0.00 1.55 1.55 99 1004.7
20260505101206 16 25 3.2 4.8 0.00 1.55 1.55 99 1004.5
20260505100702 16 114 1.6 3.2 0.00 1.55 1.55 99 1004.7
20260505100159 16 61 6.4 6.4 0.00 1.55 1.55 99 1004.6
20260505095655 16 5 6.4 6.4 0.00 1.55 1.55 99 1004.7
20260505095153 16 351 3.2 4.8 0.00 1.55 1.55 98 1004.6
20260505094649 16 24 9.7 12.9 0.18 1.55 1.55 98 1004.9
20260505094145 15 147 3.2 4.8 0.61 1.55 1.55 98 1004.5
20260505093642 15 161 3.2 4.8 1.32 1.52 1.52 98 1004.2
20260505093139 16 145 16.1 16.1 1.02 1.47 1.47 98 1004.0
20260505092636 16 160 6.4 9.7 0.18 1.30 1.30 96 1003.9
20260505092135 16 164 11.3 14.5 0.36 1.30 1.30 96 1003.8
20260505091631 16 158 14.5 16.1 0.18 1.27 1.27 97 1003.7
20260505091129 16 169 6.4 11.3 0.00 1.24 1.24 97 1004.1
20260505090626 16 163 6.4 6.4 0.30 1.24 1.24 98 1003.6
20260505090124 16 173 11.3 12.9 0.71 1.24 1.24 98 1003.5
20260505085621 16 166 8.0 11.3 0.43 1.19 1.19 98 1004.0
20260505085120 16 193 9.7 14.5 0.48 1.12 1.12 98 1003.7
20260505084617 16 202 6.4 11.3 0.89 1.12 1.12 98 1003.6
20260505084115 16 151 6.4 11.3 0.97 1.07 1.07 98 1003.6
20260505083613 16 184 1.6 3.2 0.48 0.99 0.99 98 1004.4
20260505083109 16 214 3.2 4.8 0.00 0.91 0.91 98 1004.6
20260505082605 16 209 3.2 3.2 0.00 0.91 0.91 98 1004.5
20260505082102 16 183 4.8 6.4 0.61 0.91 0.91 98 1004.3
20260505081558 16 163 6.4 9.7 0.61 0.91 0.91 98 1004.1
20260505081055 16 169 17.7 20.9 0.13 0.81 0.81 97 1003.7
20260505080551 16 185 12.9 16.1 0.13 0.81 0.81 97 1003.4
20260505080049 16 205 12.9 14.5 0.00 0.79 0.79 98 1003.5
20260505075544 16 166 9.7 16.1 0.18 0.79 0.79 98 1003.3
20260505075041 16 216 9.7 12.9 0.18 0.79 0.79 98 1003.2
20260505074538 16 158 12.9 14.5 0.00 0.76 0.76 99 1003.1
20260505074036 16 191 16.1 17.7 0.00 0.76 0.76 99 1003.6
20260505073533 16 151 9.7 11.3 0.00 0.76 0.76 99 1003.7
20260505073032 16 134 24.1 29.0 0.00 0.76 0.76 99 1003.8
20260505072526 16 172 14.5 22.5 0.00 0.76 0.76 99 1004.1
20260505072023 16 140 22.5 27.4 0.00 0.76 0.76 99 1004.2
20260505071518 16 115 9.7 12.9 0.00 0.76 0.76 99 1004.6
20260505071017 16 189 12.9 14.5 0.13 0.76 0.76 99 1005.4
20260505070514 16 167 11.3 12.9 0.13 0.76 0.76 99 1005.0
20260505070010 16 200 6.4 6.4 0.18 0.74 0.74 99 1005.4
20260505065506 16 136 4.8 6.4 0.30 0.74 0.74 99 1006.1
20260505065002 16 168 14.5 16.1 0.30 0.71 0.71 98 1006.1
20260505064459 16 173 4.8 6.4 0.30 0.69 0.69 98 1006.7
20260505063958 16 200 1.6 1.6 0.30 0.66 0.66 98 1006.9
20260505063454 16 177 3.2 3.2 0.36 0.64 0.64 98 1006.7
20260505062950 16 188 3.2 3.2 0.61 0.61 0.61 97 1006.7
20260505062448 16 196 6.4 6.4 1.02 0.58 0.58 97 1007.2
20260505061944 16 205 1.6 3.2 1.07 0.51 0.51 96 1007.2
20260505061443 17 202 4.8 9.7 0.89 0.43 0.43 95 1007.3
20260505060940 17 218 9.7 14.5 0.97 0.36 0.36 94 1007.2
20260505060437 17 266 3.2 4.8 0.71 0.25 0.25 93 1006.4
20260505055933 17 214 3.2 4.8 0.61 0.20 0.20 92 1006.5
20260505055429 17 231 4.8 6.4 0.61 0.15 0.15 91 1006.2
20260505054926 18 226 9.7 11.3 0.43 0.10 0.10 87 1005.7
20260505054423 18 257 8.0 11.3 0.30 0.05 0.05 85 1005.5
20260505053921 18 194 1.6 3.2 0.18 0.03 0.03 82 1005.4
20260505053418 19 236 3.2 4.8 0.00 0.00 0.00 78 1005.2
20260505052915 20 212 4.8 4.8 0.00 0.00 0.00 75 1004.8
20260505052412 20 176 3.2 3.2 0.00 0.00 0.00 74 1004.3
20260505051909 20 177 9.7 9.7 0.00 0.00 0.00 73 1004.3
20260505051406 20 217 6.4 6.4 0.00 0.00 0.00 71 1004.4
20260505050904 20 187 4.8 6.4 0.00 0.00 0.00 71 1004.4
20260505050402 20 155 11.3 14.5 0.00 0.00 0.00 70 1004.3
20260505041330 20 175 9.7 12.9 0.00 0.00 0.00 70 1004.6
20260505040827 20 166 6.4 6.4 0.00 0.00 0.00 69 1004.3
20260505040324 20 174 8.0 9.7 0.00 0.00 0.00 69 1004.2
20260505035821 20 186 9.7 11.3 0.00 0.00 0.00 69 1004.3
20260505035317 21 226 14.5 16.1 0.00 0.00 0.00 68 1004.3
20260505034814 21 187 4.8 6.4 0.00 0.00 0.00 68 1004.5
20260505034311 21 164 11.3 14.5 0.00 0.00 0.00 68 1004.7
20260505033808 21 160 6.4 9.7 0.00 0.00 0.00 68 1004.8
20260505033305 21 161 8.0 11.3 0.00 0.00 0.00 68 1005.0
20260505032803 21 159 9.7 12.9 0.00 0.00 0.00 68 1004.8
20260505032259 21 159 11.3 12.9 0.00 0.00 0.00 68 1004.6
20260505031757 21 207 9.7 11.3 0.00 0.00 0.00 67 1005.0
20260505031253 21 181 11.3 14.5 0.00 0.00 0.00 67 1004.7
20260505030750 21 143 8.0 11.3 0.00 0.00 0.00 67 1004.8
20260505030246 21 165 12.9 16.1 0.00 0.00 0.00 66 1004.6
20260505025741 21 176 9.7 12.9 0.00 0.00 0.00 66 1004.9
20260505025240 21 163 14.5 14.5 0.00 0.00 0.00 66 1004.9
20260505024738 21 161 11.3 12.9 0.00 0.00 0.00 66 1004.8
20260505024235 21 194 12.9 17.7 0.00 0.00 0.00 66 1004.8
20260505023732 21 187 12.9 12.9 0.00 0.00 0.00 66 1004.4